Regional Weather Roundup
Issued by NWS Wilmington, NC

Home | Current Version | Previous Version | Text Only | Print | Product List | Glossary On
Versions: 1 2 3 4 5 6 7 8 9 10 11 12 13 14 15 16 17 18 19 20 21 22 23 24 25 26 27
000
ASUS42 KILM 270513
RWRILM
RWRILM
REGIONAL HOURLY WEATHER ROUNDUP
NATIONAL WEATHER SERVICE WILMINGTON NC
100 AM EDT THU APR 27 2017

NOTE: "FAIR" INDICATES FEW OR NO CLOUDS BELOW 12,000 FEET WITH NO
SIGNIFICANT WEATHER AND/OR OBSTRUCTIONS TO VISIBILITY.

...............WFO WILMINGTON COUNTY WARNING AREA...............

......COASTAL NC AND SC COUNTIES......

CITY           SKY/WX    TMP DP  RH WIND       PRES   REMARKS
WILMINGTON     CLEAR     69  62  78 SW9       29.89R
N MYRTLE BEACH CLEAR     69  65  86 SW10      29.89R
MYRTLE BEACH   NOT AVBL

......INLAND NC AND SC COUNTIES.......

CITY           SKY/WX    TMP DP  RH WIND       PRES   REMARKS
LUMBERTON      CLEAR     67  58  72 S8        29.87R
ELIZABETHTOWN  CLEAR     68  59  74 S6        29.88S
WHITEVILLE     CLEAR     65  58  78 CALM      29.89R
FLORENCE       CLEAR     66  59  78 S8        29.88R
DARLINGTON     CLEAR     67  59  75 S10       29.88R
KINGSTREE      FAIR      63  57  82 SE3       29.88S
HARTSVILLE     FAIR      64  55  72 S6        29.87R
BENNETTSVILLE  FAIR      70  59  68 S8        29.87R
CONWAY         NOT AVBL
GEORGETOWN     FAIR      64  63  94 S5        29.90S
MARION         FAIR      64  57  77 S6        29.89S

....................REST OF NORTH CAROLINA......................

.........EASTERN NC.........

CITY           SKY/WX    TMP DP  RH WIND       PRES   REMARKS
CAPE HATTERAS  CLEAR     71  66  84 SW9       29.89S HAZE
JACKSONVILLE   PTCLDY    65  62  90 S6        29.89R
MOREHEAD CITY  CLEAR     70  69  97 SW10      29.89S
KENANSVILLE    CLEAR     66  61  82 CALM      29.88R
NEW BERN       CLEAR     66  65  96 S7        29.89R
ELIZABETH CITY PTCLDY    66  65  96 S5        29.86S

.........CENTRAL NC.........

CITY           SKY/WX    TMP DP  RH WIND       PRES   REMARKS
RALEIGH DURHAM CLEAR     68  64  87 S6        29.84R
ROCKY MOUNT    CLEAR     66  64  93 S3        29.84S
ROANOKE RAPIDS NOT AVBL
FAYETTEVILLE   CLEAR     70  62  76 S9        29.85S
HOFFMAN        NOT AVBL

.........WESTERN NC.........

CITY           SKY/WX    TMP DP  RH WIND       PRES   REMARKS
CHARLOTTE      CLEAR     66  58  75 S9        29.84S
GREENSBORO     CLEAR     64  62  93 S6        29.83R
HICKORY        NOT AVBL
BOONE          NOT AVBL
ASHEVILLE      NOT AVBL

.....................REST OF SOUTH CAROLINA.....................

.........EASTERN SC.........

CITY           SKY/WX    TMP DP  RH WIND       PRES   REMARKS
CHARLESTON     CLEAR     66  61  84 S6        29.88S
BEAUFORT MCAS  CLEAR     72  66  81 S7        29.88R
HILTON HEAD    CLEAR     72  66  83 S6G14     29.89S

.........CENTRAL SC.........

CITY           SKY/WX    TMP DP  RH WIND       PRES   REMARKS
COLUMBIA       CLEAR     68  58  70 SW7       29.85S
ORANGEBURG     CLEAR     64  61  90 S3        29.88S
SUMTER SHAW    CLEAR     66  59  79 S6        29.85S

.........WESTERN SC.........

CITY           SKY/WX    TMP DP  RH WIND       PRES   REMARKS
GREENVILLE     NOT AVBL
ROCK HILL      CLEAR     66  59  78 S7        29.85R
ANDERSON       PTCLDY    67  60  78 S3        29.84S
CLEMSON        NOT AVBL
GREENWOOD      MOCLDY    67  59  75 S6        29.86R


...................COASTAL AND OFFSHORE REPORTS..................

................LOCAL PIERS AND NC RESERVE................


STATION/POSITION TIME  SKY/WX   TEMP    WIND        PRES    VSBY
                                AIR SEA DIR/SP/G
                 (UTC)          (F)     (DEG/KT/KT) (MB)    (MI)
JOHNY MRCER PIER 0448            71 71  220/ 10/ 14 1011.2R
NC RESRV MASNBRO 0345            70     250/  6     1012.0
OCEAN CREST PIER NOT AVBL
SPRINGMAID  PIER 0448                               1011.6R


................COASTAL AND OFFSHORE BUOYS................


STATION/POSITION TIME  SKY/WX   TEMP    WIND        PRES    VSBY
                                AIR SEA DIR/SP/G
                 (UTC)          (F)     (DEG/KT/KT) (MB)    (MI)
DIMNDSHOAL 41025 0450            76 76  210/ 17/ 21 1012.0F
WVE H/P(F/S)=  6/ 9 SWL H/P/D(F/S/D)=  5/150/ 9

CAPE LOOKOUT     0500            71     220/  8/ 11 1011.9R
ONSLOW BAY 41036 NOT AVBL
ONSLOW BAY 41064 0408            71     210/ 12/ 16 1012.2S
ONSLOW BAY 41159 0443               71                N/A
WVE H/P(F/S)=  4/ 9 SWL H/P/D(F/S/D)=  2/110/11

MASNBO INL 41110 0459               71                N/A
WVE H/P(F/S)=  3/ 9

WILM HARBR 41108 0447               71                N/A
WVE H/P(F/S)=  4/ 9

27SE WRITB 41037 0408            72 72  190/ 14/ 19 1011.6R
FRYING PAN 41013 0500            74 74  200/ 12/ 14 1012.4
SUNST NRSH 41024 0408            70 69  230/ 10/ 14 1011.7R
CAPRS NRSH 41029 0408            76 72  190/ 16/ 21 1011.8S
EDISTO     41004 0450            74 73  190/ 14/ 17 1012.0R
WVE H/P(F/S)=  4/ 9 SWL H/P/D(F/S/D)=  3/130/ 9



..........OFFSHORE BUOYS BEYOND 100 NM OFFSHORE...........
.....IN A TRIANGLE---HAT TO BERMUDA TO BAHAMAS TO HAT.....


STATION/POSITION TIME  SKY/WX   TEMP    WIND        PRES    VSBY
                                AIR SEA DIR/SP/G
                 (UTC)          (F)     (DEG/KT/KT) (MB)    (MI)
150E HAT   41001 0500            72 74  230/ 10/ 14 1014.4
W BERMUDA  41048 0500            71 71  180/  6/ 10 1018.3
ATLANTIC S 41049 0450            72 72  110/ 14/ 16 1020.9F
WVE H/P(F/S)=  5/ 7 SWL H/P/D(F/S/D)=  3/ 80/ 7

E BAHAMAS  41046 0450            77 77   90/  8/ 10 1017.9F
WVE H/P(F/S)=  4/12 SWL H/P/D(F/S/D)=  3/ 70/12

NE BAHAMAS 41047 0500            75 75  140/  8/  8 1018.1
120E CANVRL41010 0500            76 78  150/ 12/ 16 1014.3

END




USA.gov is the U.S. government's official web portal to all federal, state and local government web resources and services.